Time,TemperatureF,DewpointF,PressureIn,WindDirection,WindDirectionDegrees,WindSpeedMPH,WindSpeedGustMPH,Humidity,HourlyPrecipIn,Conditions,Clouds,dailyrainin,SoftwareType,DateUTC
2013-01-21 00:02:00,55.9,42.3,29.24,South,190,0.0,0.0,60,0.00,,,0.00,LWC V2.10 B1813,2013-01-21 06:02:00,
2013-01-21 00:07:00,55.6,41.9,29.24,South,190,0.0,0.0,60,0.00,,,0.00,LWC V2.10 B1813,2013-01-21 06:07:00,
2013-01-21 00:12:00,55.4,42.2,29.24,SSE,165,0.0,0.0,61,0.00,,,0.00,LWC V2.10 B1813,2013-01-21 06:12:00,
2013-01-21 00:17:00,55.2,42.4,29.24,East,91,3.1,3.1,62,0.00,,,0.00,LWC V2.10 B1813,2013-01-21 06:17:00,
2013-01-21 00:22:00,55.2,42.4,29.24,East,91,0.0,2.2,62,0.00,,,0.00,LWC V2.10 B1813,2013-01-21 06:22:00,
2013-01-21 00:27:00,55.2,42.4,29.24,East,91,0.0,0.0,62,0.00,,,0.00,LWC V2.10 B1813,2013-01-21 06:27:00,
2013-01-21 00:32:00,55.4,42.6,29.24,East,97,0.0,2.7,62,0.00,,,0.00,LWC V2.10 B1813,2013-01-21 06:32:00,
2013-01-21 00:37:00,55.4,43.0,29.24,East,99,2.7,2.7,63,0.00,,,0.00,LWC V2.10 B1813,2013-01-21 06:37:00,
2013-01-21 00:42:00,55.4,43.0,29.24,East,97,0.0,2.7,63,0.00,,,0.00,LWC V2.10 B1813,2013-01-21 06:42:00,
2013-01-21 00:47:00,55.6,43.6,29.24,SSE,150,0.0,0.0,64,0.00,,,0.00,LWC V2.10 B1813,2013-01-21 06:47:00,
2013-01-21 00:52:00,55.8,43.8,29.24,SW,221,0.0,3.1,64,0.00,,,0.00,LWC V2.10 B1813,2013-01-21 06:52:00,
2013-01-21 00:57:00,55.2,43.7,29.24,SSW,198,3.1,3.1,65,0.00,,,0.00,LWC V2.10 B1813,2013-01-21 06:57:00,
2013-01-21 01:02:00,55.6,44.0,29.24,SSW,199,0.0,3.1,65,0.00,,,0.00,LWC V2.10 B1813,2013-01-21 07:02:00,
2013-01-21 01:07:00,55.6,44.0,29.24,SSW,198,2.7,4.9,65,0.00,,,0.00,LWC V2.10 B1813,2013-01-21 07:07:00,
2013-01-21 01:12:00,55.2,44.1,29.24,South,189,0.0,3.6,66,0.00,,,0.00,LWC V2.10 B1813,2013-01-21 07:12:00,
2013-01-21 01:17:00,55.0,43.9,29.24,SSW,202,2.2,2.2,66,0.00,,,0.00,LWC V2.10 B1813,2013-01-21 07:17:00,
2013-01-21 01:22:00,54.9,43.7,29.24,South,183,0.0,0.0,66,0.00,,,0.00,LWC V2.10 B1813,2013-01-21 07:22:00,
2013-01-21 01:27:00,54.7,43.9,29.24,South,183,0.0,0.0,67,0.00,,,0.00,LWC V2.10 B1813,2013-01-21 07:27:00,
2013-01-21 01:32:00,54.5,43.8,29.24,South,183,0.0,0.0,67,0.00,,,0.00,LWC V2.10 B1813,2013-01-21 07:32:00,
2013-01-21 01:37:00,54.3,43.6,29.24,South,183,0.0,0.0,67,0.00,,,0.00,LWC V2.10 B1813,2013-01-21 07:37:00,
2013-01-21 01:42:00,54.7,43.9,29.24,SSW,212,2.2,2.2,67,0.00,,,0.00,LWC V2.10 B1813,2013-01-21 07:42:00,
2013-01-21 01:47:00,55.2,44.8,29.26,SW,214,2.7,5.4,68,0.00,,,0.00,LWC V2.10 B1813,2013-01-21 07:47:00,
2013-01-21 01:52:00,55.0,44.7,29.26,SW,219,0.0,3.6,68,0.00,,,0.00,LWC V2.10 B1813,2013-01-21 07:52:00,
2013-01-21 01:57:00,54.7,43.9,29.26,SW,218,0.0,0.0,67,0.00,,,0.00,LWC V2.10 B1813,2013-01-21 07:57:00,
2013-01-21 02:02:00,54.7,43.9,29.26,SW,219,0.0,0.0,67,0.00,,,0.00,LWC V2.10 B1813,2013-01-21 08:02:00,
2013-01-21 02:07:00,54.9,44.5,29.26,SW,225,2.2,3.1,68,0.00,,,0.00,LWC V2.10 B1813,2013-01-21 08:07:00,
2013-01-21 02:12:00,54.7,44.3,29.26,SW,236,0.0,2.7,68,0.00,,,0.00,LWC V2.10 B1813,2013-01-21 08:12:00,
2013-01-21 02:17:00,54.9,44.5,29.26,WSW,242,0.0,2.2,68,0.00,,,0.00,LWC V2.10 B1813,2013-01-21 08:17:00,
2013-01-21 02:22:00,54.9,44.5,29.26,WSW,243,0.0,0.0,68,0.00,,,0.00,LWC V2.10 B1813,2013-01-21 08:22:00,
2013-01-21 02:27:00,54.9,44.5,29.26,WSW,255,0.0,0.0,68,0.00,,,0.00,LWC V2.10 B1813,2013-01-21 08:27:00,
2013-01-21 02:32:00,54.7,44.3,29.26,WSW,255,0.0,0.0,68,0.00,,,0.00,LWC V2.10 B1813,2013-01-21 08:32:00,
2013-01-21 02:37:00,54.9,44.5,29.26,SW,232,0.0,2.7,68,0.00,,,0.00,LWC V2.10 B1813,2013-01-21 08:37:00,
2013-01-21 02:42:00,54.7,44.3,29.26,SW,214,0.0,3.6,68,0.00,,,0.00,LWC V2.10 B1813,2013-01-21 08:42:00,
2013-01-21 02:47:00,54.7,44.3,29.26,SSW,212,0.0,0.0,68,0.00,,,0.00,LWC V2.10 B1813,2013-01-21 08:47:00,
2013-01-21 02:52:00,54.7,44.3,29.26,SSW,212,0.0,0.0,68,0.00,,,0.00,LWC V2.10 B1813,2013-01-21 08:52:00,
2013-01-21 02:57:00,54.7,44.3,29.26,SSW,212,0.0,0.0,68,0.00,,,0.00,LWC V2.10 B1813,2013-01-21 08:57:00,
2013-01-21 03:02:00,54.7,44.7,29.26,SSW,212,0.0,0.0,69,0.00,,,0.00,LWC V2.10 B1813,2013-01-21 09:02:00,
2013-01-21 03:07:00,54.7,44.7,29.26,SSW,212,0.0,0.0,69,0.00,,,0.00,LWC V2.10 B1813,2013-01-21 09:07:00,
2013-01-21 03:12:00,54.5,44.2,29.26,SSW,212,0.0,0.0,68,0.00,,,0.00,LWC V2.10 B1813,2013-01-21 09:12:00,
2013-01-21 03:17:00,54.5,44.5,29.26,SSW,212,0.0,0.0,69,0.00,,,0.00,LWC V2.10 B1813,2013-01-21 09:17:00,
2013-01-21 03:22:00,54.5,44.5,29.26,SSW,212,0.0,0.0,69,0.00,,,0.00,LWC V2.10 B1813,2013-01-21 09:22:00,
2013-01-21 03:27:00,54.3,44.4,29.26,SSW,212,0.0,0.0,69,0.00,,,0.00,LWC V2.10 B1813,2013-01-21 09:27:00,
2013-01-21 03:32:00,54.3,44.4,29.26,SSW,212,0.0,0.0,69,0.00,,,0.00,LWC V2.10 B1813,2013-01-21 09:32:00,
2013-01-21 03:37:00,54.1,44.2,29.26,SSW,212,0.0,0.0,69,0.00,,,0.00,LWC V2.10 B1813,2013-01-21 09:37:00,
2013-01-21 03:42:00,54.1,44.2,29.26,SSW,212,0.0,0.0,69,0.00,,,0.00,LWC V2.10 B1813,2013-01-21 09:42:00,
2013-01-21 03:47:00,54.0,44.0,29.26,West,265,0.0,0.0,69,0.00,,,0.00,LWC V2.10 B1813,2013-01-21 09:47:00,
2013-01-21 03:52:00,53.8,43.9,29.26,West,266,0.0,0.0,69,0.00,,,0.00,LWC V2.10 B1813,2013-01-21 09:52:00,
2013-01-21 03:57:00,53.6,44.1,29.26,West,266,0.0,0.0,70,0.00,,,0.00,LWC V2.10 B1813,2013-01-21 09:57:00,
2013-01-21 04:02:00,53.4,43.9,29.26,West,266,0.0,0.0,70,0.00,,,0.00,LWC V2.10 B1813,2013-01-21 10:02:00,
2013-01-21 04:07:00,53.4,44.3,29.26,West,266,0.0,0.0,71,0.00,,,0.00,LWC V2.10 B1813,2013-01-21 10:07:00,
2013-01-21 04:12:00,53.4,44.3,29.26,West,266,0.0,0.0,71,0.00,,,0.00,LWC V2.10 B1813,2013-01-21 10:12:00,
2013-01-21 04:17:00,53.4,44.3,29.26,West,266,0.0,0.0,71,0.00,,,0.00,LWC V2.10 B1813,2013-01-21 10:17:00,
2013-01-21 04:22:00,53.4,44.3,29.26,West,266,0.0,0.0,71,0.00,,,0.00,LWC V2.10 B1813,2013-01-21 10:22:00,
2013-01-21 04:27:00,53.6,44.4,29.26,West,266,0.0,0.0,71,0.00,,,0.00,LWC V2.10 B1813,2013-01-21 10:27:00,
2013-01-21 04:32:00,53.6,44.4,29.26,West,266,0.0,0.0,71,0.00,,,0.00,LWC V2.10 B1813,2013-01-21 10:32:00,
2013-01-21 04:37:00,53.4,44.3,29.26,West,266,0.0,0.0,71,0.00,,,0.00,LWC V2.10 B1813,2013-01-21 10:37:00,
2013-01-21 04:42:00,53.4,44.3,29.26,West,266,0.0,0.0,71,0.00,,,0.00,LWC V2.10 B1813,2013-01-21 10:42:00,
2013-01-21 04:47:00,53.4,44.3,29.26,West,266,0.0,0.0,71,0.00,,,0.00,LWC V2.10 B1813,2013-01-21 10:47:00,
2013-01-21 04:52:00,53.4,44.3,29.26,West,266,0.0,0.0,71,0.00,,,0.00,LWC V2.10 B1813,2013-01-21 10:52:00,
2013-01-21 04:57:00,53.6,44.4,29.26,West,267,0.0,0.0,71,0.00,,,0.00,LWC V2.10 B1813,2013-01-21 10:57:00,
2013-01-21 05:02:00,53.6,44.4,29.26,West,271,0.0,0.0,71,0.00,,,0.00,LWC V2.10 B1813,2013-01-21 11:02:00,
2013-01-21 05:07:00,53.6,44.4,29.26,West,272,0.0,0.0,71,0.00,,,0.00,LWC V2.10 B1813,2013-01-21 11:07:00,
2013-01-21 05:13:00,53.4,44.3,29.26,West,277,0.0,0.0,71,0.00,,,0.00,LWC V2.10 B1813,2013-01-21 11:13:00,
2013-01-21 05:18:00,53.1,43.9,29.26,West,277,0.0,0.0,71,0.00,,,0.00,LWC V2.10 B1813,2013-01-21 11:18:00,
2013-01-21 05:23:00,52.7,43.9,29.26,West,277,0.0,0.0,72,0.00,,,0.00,LWC V2.10 B1813,2013-01-21 11:23:00,
2013-01-21 05:28:00,51.6,42.9,29.26,West,277,0.0,0.0,72,0.00,,,0.00,LWC V2.10 B1813,2013-01-21 11:28:00,
2013-01-21 05:33:00,51.3,42.5,29.26,West,277,0.0,0.0,72,0.00,,,0.00,LWC V2.10 B1813,2013-01-21 11:33:00,
2013-01-21 05:38:00,50.2,41.5,29.26,West,275,0.0,0.0,72,0.00,,,0.00,LWC V2.10 B1813,2013-01-21 11:38:00,
2013-01-21 05:43:00,49.1,40.5,29.26,West,259,0.0,0.0,72,0.00,,,0.00,LWC V2.10 B1813,2013-01-21 11:43:00,
2013-01-21 05:48:00,48.2,39.6,29.26,NW,320,0.0,2.7,72,0.00,,,0.00,LWC V2.10 B1813,2013-01-21 11:48:00,
2013-01-21 05:53:00,47.7,39.8,29.26,WSW,256,3.6,3.6,74,0.00,,,0.00,LWC V2.10 B1813,2013-01-21 11:53:00,
2013-01-21 05:58:00,46.8,38.9,29.26,North,353,3.1,4.0,74,0.00,,,0.00,LWC V2.10 B1813,2013-01-21 11:58:00,
2013-01-21 06:03:00,46.4,38.9,29.26,NNW,337,2.7,4.0,75,0.00,,,0.00,LWC V2.10 B1813,2013-01-21 12:03:00,
2013-01-21 06:08:00,46.6,39.4,29.26,North,353,0.0,0.0,76,0.00,,,0.00,LWC V2.10 B1813,2013-01-21 12:08:00,
2013-01-21 06:13:00,46.4,39.3,29.26,North,353,0.0,0.0,76,0.00,,,0.00,LWC V2.10 B1813,2013-01-21 12:13:00,
2013-01-21 06:18:00,46.6,39.8,29.26,NNW,341,0.0,0.0,77,0.00,,,0.00,LWC V2.10 B1813,2013-01-21 12:18:00,
2013-01-21 06:23:00,46.0,39.6,29.26,NNW,341,0.0,0.0,78,0.00,,,0.00,LWC V2.10 B1813,2013-01-21 12:23:00,
2013-01-21 06:28:00,45.3,38.5,29.26,NNW,341,0.0,0.0,77,0.00,,,0.00,LWC V2.10 B1813,2013-01-21 12:28:00,
2013-01-21 06:33:00,45.3,38.5,29.29,NNW,341,0.0,0.0,77,0.00,,,0.00,LWC V2.10 B1813,2013-01-21 12:33:00,
2013-01-21 06:38:00,45.1,38.4,29.29,WNW,303,0.0,0.0,77,0.00,,,0.00,LWC V2.10 B1813,2013-01-21 12:38:00,
2013-01-21 06:43:00,44.8,38.3,29.29,WNW,295,0.0,0.0,78,0.00,,,0.00,LWC V2.10 B1813,2013-01-21 12:43:00,
2013-01-21 06:48:00,44.6,38.5,29.29,WNW,284,3.1,4.0,79,0.00,,,0.00,LWC V2.10 B1813,2013-01-21 12:48:00,
2013-01-21 06:53:00,44.4,38.3,29.29,WNW,285,0.0,0.0,79,0.00,,,0.00,LWC V2.10 B1813,2013-01-21 12:53:00,
2013-01-21 06:58:00,44.2,38.5,29.29,West,272,0.0,2.7,80,0.00,,,0.00,LWC V2.10 B1813,2013-01-21 12:58:00,
2013-01-21 07:03:00,44.1,38.3,29.29,WSW,257,0.0,4.0,80,0.00,,,0.00,LWC V2.10 B1813,2013-01-21 13:03:00,
2013-01-21 07:08:00,43.7,37.9,29.29,WSW,257,2.7,3.1,80,0.00,,,0.00,LWC V2.10 B1813,2013-01-21 13:08:00,
2013-01-21 07:13:00,43.3,37.9,29.26,WNW,289,3.1,4.0,81,0.00,,,0.00,LWC V2.10 B1813,2013-01-21 13:13:00,
2013-01-21 07:18:00,43.0,37.6,29.26,WNW,298,4.9,4.9,81,0.00,,,0.00,LWC V2.10 B1813,2013-01-21 13:18:00,
2013-01-21 07:23:00,42.8,37.4,29.26,NW,307,2.7,4.0,81,0.00,,,0.00,LWC V2.10 B1813,2013-01-21 13:23:00,
2013-01-21 07:28:00,42.8,37.4,29.26,NW,305,2.7,3.6,81,0.00,,,0.00,LWC V2.10 B1813,2013-01-21 13:28:00,
2013-01-21 07:33:00,42.6,37.2,29.29,WNW,299,2.2,4.0,81,0.00,,,0.00,LWC V2.10 B1813,2013-01-21 13:33:00,
2013-01-21 07:38:00,42.6,37.5,29.29,WNW,303,2.2,4.0,82,0.00,,,0.00,LWC V2.10 B1813,2013-01-21 13:38:00,
2013-01-21 07:43:00,42.6,37.5,29.29,NW,325,2.2,2.7,82,0.00,,,0.00,LWC V2.10 B1813,2013-01-21 13:43:00,
2013-01-21 07:48:00,42.4,37.3,29.29,NW,320,0.0,2.2,82,0.00,,,0.00,LWC V2.10 B1813,2013-01-21 13:48:00,
2013-01-21 07:53:00,42.8,37.4,29.29,WNW,292,0.0,2.7,81,0.00,,,0.00,LWC V2.10 B1813,2013-01-21 13:53:00,
2013-01-21 07:58:00,42.8,37.7,29.32,NW,312,0.0,0.0,82,0.00,,,0.00,LWC V2.10 B1813,2013-01-21 13:58:00,
2013-01-21 08:03:00,43.0,37.9,29.32,NW,321,0.0,3.1,82,0.00,,,0.00,LWC V2.10 B1813,2013-01-21 14:03:00,
2013-01-21 08:08:00,43.0,37.9,29.32,NW,313,0.0,0.0,82,0.00,,,0.00,LWC V2.10 B1813,2013-01-21 14:08:00,
2013-01-21 08:13:00,43.2,38.0,29.32,NW,313,0.0,0.0,82,0.00,,,0.00,LWC V2.10 B1813,2013-01-21 14:13:00,
2013-01-21 08:18:00,43.5,38.4,29.32,NW,313,0.0,0.0,82,0.00,,,0.00,LWC V2.10 B1813,2013-01-21 14:18:00,
2013-01-21 08:23:00,44.1,38.9,29.32,NW,313,0.0,0.0,82,0.00,,,0.00,LWC V2.10 B1813,2013-01-21 14:23:00,
2013-01-21 08:28:00,44.8,39.6,29.32,NW,313,0.0,0.0,82,0.00,,,0.00,LWC V2.10 B1813,2013-01-21 14:28:00,
2013-01-21 08:33:00,45.3,40.2,29.32,NW,312,0.0,0.0,82,0.00,,,0.00,LWC V2.10 B1813,2013-01-21 14:33:00,
2013-01-21 08:38:00,45.0,39.5,29.32,WNW,285,0.0,0.0,81,0.00,,,0.00,LWC V2.10 B1813,2013-01-21 14:38:00,
2013-01-21 08:43:00,45.0,39.5,29.32,WNW,285,0.0,0.0,81,0.00,,,0.00,LWC V2.10 B1813,2013-01-21 14:43:00,
2013-01-21 08:48:00,45.5,40.0,29.32,WNW,285,0.0,0.0,81,0.00,,,0.00,LWC V2.10 B1813,2013-01-21 14:48:00,
2013-01-21 08:53:00,45.9,40.4,29.32,WNW,285,0.0,0.0,81,0.00,,,0.00,LWC V2.10 B1813,2013-01-21 14:53:00,
2013-01-21 08:58:00,46.2,40.7,29.32,WNW,285,0.0,0.0,81,0.00,,,0.00,LWC V2.10 B1813,2013-01-21 14:58:00,
2013-01-21 09:03:00,46.8,41.2,29.32,WNW,285,0.0,0.0,81,0.00,,,0.00,LWC V2.10 B1813,2013-01-21 15:03:00,
2013-01-21 09:08:00,47.1,41.6,29.32,WSW,251,0.0,2.7,81,0.00,,,0.00,LWC V2.10 B1813,2013-01-21 15:08:00,
2013-01-21 09:13:00,46.9,41.4,29.32,SW,232,2.7,3.1,81,0.00,,,0.00,LWC V2.10 B1813,2013-01-21 15:13:00,
2013-01-21 09:18:00,47.5,41.9,29.32,SW,235,0.0,2.2,81,0.00,,,0.00,LWC V2.10 B1813,2013-01-21 15:18:00,
2013-01-21 09:23:00,48.2,42.3,29.32,SW,235,2.2,2.7,80,0.00,,,0.00,LWC V2.10 B1813,2013-01-21 15:23:00,
2013-01-21 09:28:00,48.6,42.7,29.35,WSW,238,2.7,4.0,80,0.00,,,0.00,LWC V2.10 B1813,2013-01-21 15:28:00,
2013-01-21 09:33:00,49.1,43.2,29.35,SW,234,4.0,4.0,80,0.00,,,0.00,LWC V2.10 B1813,2013-01-21 15:33:00,
2013-01-21 09:38:00,49.8,43.9,29.35,WSW,258,2.7,4.0,80,0.00,,,0.00,LWC V2.10 B1813,2013-01-21 15:38:00,
2013-01-21 09:43:00,50.7,44.4,29.35,West,267,3.1,4.0,79,0.00,,,0.00,LWC V2.10 B1813,2013-01-21 15:43:00,
2013-01-21 09:48:00,51.6,45.0,29.35,WNW,287,0.0,2.7,78,0.00,,,0.00,LWC V2.10 B1813,2013-01-21 15:48:00,
2013-01-21 09:53:00,52.2,44.8,29.35,WSW,239,2.7,3.6,76,0.00,,,0.00,LWC V2.10 B1813,2013-01-21 15:53:00,
2013-01-21 09:58:00,52.9,45.2,29.35,WSW,245,2.7,4.0,75,0.00,,,0.00,LWC V2.10 B1813,2013-01-21 15:58:00,
2013-01-21 10:03:00,52.9,44.8,29.35,SW,224,0.0,3.1,74,0.00,,,0.00,LWC V2.10 B1813,2013-01-21 16:03:00,
2013-01-21 10:08:00,53.8,45.3,29.35,West,266,2.7,3.1,73,0.00,,,0.00,LWC V2.10 B1813,2013-01-21 16:08:00,
2013-01-21 10:13:00,54.9,46.4,29.32,West,273,0.0,0.0,73,0.00,,,0.00,LWC V2.10 B1813,2013-01-21 16:13:00,
2013-01-21 10:18:00,55.8,46.5,29.32,WNW,285,0.0,3.1,71,0.00,,,0.00,LWC V2.10 B1813,2013-01-21 16:18:00,
2013-01-21 10:23:00,55.9,45.9,29.32,NW,318,2.7,4.0,69,0.00,,,0.00,LWC V2.10 B1813,2013-01-21 16:23:00,
2013-01-21 10:28:00,55.9,45.5,29.35,WNW,284,3.1,3.6,68,0.00,,,0.00,LWC V2.10 B1813,2013-01-21 16:28:00,
2013-01-21 10:33:00,56.7,46.2,29.35,WNW,299,3.6,3.6,68,0.00,,,0.00,LWC V2.10 B1813,2013-01-21 16:33:00,
2013-01-21 10:38:00,57.2,46.3,29.35,NNW,330,2.7,3.1,67,0.00,,,0.00,LWC V2.10 B1813,2013-01-21 16:38:00,
2013-01-21 10:43:00,58.1,46.8,29.35,WNW,299,3.1,3.6,66,0.00,,,0.00,LWC V2.10 B1813,2013-01-21 16:43:00,
2013-01-21 10:48:00,58.5,46.7,29.35,West,271,3.6,4.9,65,0.00,,,0.00,LWC V2.10 B1813,2013-01-21 16:48:00,
2013-01-21 10:53:00,58.8,47.1,29.35,SW,233,2.2,4.0,65,0.00,,,0.00,LWC V2.10 B1813,2013-01-21 16:53:00,
2013-01-21 10:58:00,59.7,47.5,29.35,WSW,243,4.0,4.9,64,0.00,,,0.00,LWC V2.10 B1813,2013-01-21 16:58:00,
2013-01-21 11:03:00,60.6,48.0,29.35,WSW,244,2.7,3.1,63,0.00,,,0.00,LWC V2.10 B1813,2013-01-21 17:03:00,
2013-01-21 11:08:00,61.3,48.2,29.35,SW,236,2.7,4.0,62,0.00,,,0.00,LWC V2.10 B1813,2013-01-21 17:08:00,
2013-01-21 11:13:00,61.9,48.7,29.35,WNW,290,4.9,4.9,62,0.00,,,0.00,LWC V2.10 B1813,2013-01-21 17:13:00,
2013-01-21 11:18:00,62.2,48.6,29.35,WSW,241,3.1,3.1,61,0.00,,,0.00,LWC V2.10 B1813,2013-01-21 17:18:00,
2013-01-21 11:23:00,63.0,48.9,29.35,SW,230,4.0,4.0,60,0.00,,,0.00,LWC V2.10 B1813,2013-01-21 17:23:00,
2013-01-21 11:28:00,63.3,49.2,29.35,SSW,196,0.0,0.0,60,0.00,,,0.00,LWC V2.10 B1813,2013-01-21 17:28:00,
2013-01-21 11:33:00,64.2,49.6,29.35,SSW,202,0.0,2.7,59,0.00,,,0.00,LWC V2.10 B1813,2013-01-21 17:33:00,
2013-01-21 11:38:00,64.4,48.4,29.35,SSW,205,3.6,5.4,56,0.00,,,0.00,LWC V2.10 B1813,2013-01-21 17:38:00,
2013-01-21 11:43:00,64.6,48.0,29.35,SW,220,4.0,4.9,55,0.00,,,0.00,LWC V2.10 B1813,2013-01-21 17:43:00,
2013-01-21 11:48:00,65.1,48.1,29.35,North,10,3.1,3.1,54,0.00,,,0.00,LWC V2.10 B1813,2013-01-21 17:48:00,
2013-01-21 11:53:00,66.0,48.4,29.35,WNW,285,4.5,4.5,53,0.00,,,0.00,LWC V2.10 B1813,2013-01-21 17:53:00,
2013-01-21 11:58:00,65.1,46.5,29.35,WNW,291,4.0,5.4,51,0.00,,,0.00,LWC V2.10 B1813,2013-01-21 17:58:00,
2013-01-21 12:03:00,64.9,46.4,29.35,SW,233,0.0,3.6,51,0.00,,,0.00,LWC V2.10 B1813,2013-01-21 18:03:00,
2013-01-21 12:08:00,65.5,46.3,29.35,West,266,0.0,6.7,50,0.00,,,0.00,LWC V2.10 B1813,2013-01-21 18:08:00,
2013-01-21 12:13:00,65.7,46.5,29.35,West,270,3.1,3.1,50,0.00,,,0.00,LWC V2.10 B1813,2013-01-21 18:13:00,
2013-01-21 12:18:00,65.8,46.7,29.32,WNW,284,4.5,5.8,50,0.00,,,0.00,LWC V2.10 B1813,2013-01-21 18:18:00,
2013-01-21 12:23:00,66.0,46.3,29.32,SW,225,3.6,4.9,49,0.00,,,0.00,LWC V2.10 B1813,2013-01-21 18:23:00,
2013-01-21 12:28:00,66.4,46.6,29.32,NW,312,3.1,4.9,49,0.00,,,0.00,LWC V2.10 B1813,2013-01-21 18:28:00,
2013-01-21 12:33:00,66.6,46.3,29.32,NW,318,3.6,5.8,48,0.00,,,0.00,LWC V2.10 B1813,2013-01-21 18:33:00,
2013-01-21 12:38:00,66.4,46.1,29.32,NW,306,3.6,4.9,48,0.00,,,0.00,LWC V2.10 B1813,2013-01-21 18:38:00,
2013-01-21 12:43:00,66.9,46.6,29.32,West,260,2.2,3.1,48,0.00,,,0.00,LWC V2.10 B1813,2013-01-21 18:43:00,
2013-01-21 12:48:00,66.9,46.0,29.32,SW,220,3.1,4.0,47,0.00,,,0.00,LWC V2.10 B1813,2013-01-21 18:48:00,
2013-01-21 12:53:00,66.7,45.9,29.32,WSW,244,3.6,4.0,47,0.00,,,0.00,LWC V2.10 B1813,2013-01-21 18:53:00,
2013-01-21 12:58:00,66.9,46.0,29.32,NNW,331,4.0,4.0,47,0.00,,,0.00,LWC V2.10 B1813,2013-01-21 18:58:00,
2013-01-21 13:03:00,67.8,46.8,29.32,NW,322,2.2,4.5,47,0.00,,,0.00,LWC V2.10 B1813,2013-01-21 19:03:00,
2013-01-21 13:08:00,68.4,46.8,29.32,NNW,345,0.0,2.2,46,0.00,,,0.00,LWC V2.10 B1813,2013-01-21 19:08:00,
2013-01-21 13:13:00,68.5,46.9,29.32,West,267,3.1,3.1,46,0.00,,,0.00,LWC V2.10 B1813,2013-01-21 19:13:00,
2013-01-21 13:18:00,68.2,46.0,29.32,SW,226,0.0,3.6,45,0.00,,,0.00,LWC V2.10 B1813,2013-01-21 19:18:00,
2013-01-21 13:23:00,68.7,46.5,29.32,South,178,0.0,2.7,45,0.00,,,0.00,LWC V2.10 B1813,2013-01-21 19:23:00,
2013-01-21 13:28:00,69.1,46.8,29.29,SSE,162,0.0,3.6,45,0.00,,,0.00,LWC V2.10 B1813,2013-01-21 19:28:00,
2013-01-21 13:33:00,69.6,47.3,29.29,North,357,3.1,3.6,45,0.00,,,0.00,LWC V2.10 B1813,2013-01-21 19:33:00,
2013-01-21 13:38:00,69.3,46.4,29.29,NE,41,2.2,4.0,44,0.00,,,0.00,LWC V2.10 B1813,2013-01-21 19:38:00,
2013-01-21 13:43:00,69.3,46.4,29.29,NNW,328,2.7,4.9,44,0.00,,,0.00,LWC V2.10 B1813,2013-01-21 19:43:00,
2013-01-21 13:48:00,69.1,46.2,29.29,NNE,20,0.0,3.6,44,0.00,,,0.00,LWC V2.10 B1813,2013-01-21 19:48:00,
2013-01-21 13:53:00,69.4,46.6,29.29,NE,50,2.7,4.5,44,0.00,,,0.00,LWC V2.10 B1813,2013-01-21 19:53:00,
2013-01-21 13:58:00,69.6,46.7,29.29,NNW,333,2.2,4.0,44,0.00,,,0.00,LWC V2.10 B1813,2013-01-21 19:58:00,
2013-01-21 14:03:00,69.3,46.4,29.29,NNE,16,2.7,4.0,44,0.00,,,0.00,LWC V2.10 B1813,2013-01-21 20:03:00,
2013-01-21 14:08:00,69.3,45.8,29.29,WNW,287,4.5,5.4,43,0.00,,,0.00,LWC V2.10 B1813,2013-01-21 20:08:00,
2013-01-21 14:13:00,68.9,45.5,29.29,South,180,0.0,3.1,43,0.00,,,0.00,LWC V2.10 B1813,2013-01-21 20:13:00,
2013-01-21 14:18:00,70.2,46.6,29.29,East,79,0.0,3.6,43,0.00,,,0.00,LWC V2.10 B1813,2013-01-21 20:18:00,
2013-01-21 14:23:00,70.3,46.8,29.29,South,181,0.0,5.8,43,0.00,,,0.00,LWC V2.10 B1813,2013-01-21 20:23:00,
2013-01-21 14:28:00,70.2,46.0,29.29,North,10,2.7,4.0,42,0.00,,,0.00,LWC V2.10 B1813,2013-01-21 20:28:00,
2013-01-21 14:33:00,70.3,46.1,29.29,NNW,332,0.0,2.2,42,0.00,,,0.00,LWC V2.10 B1813,2013-01-21 20:33:00,
2013-01-21 14:38:00,71.1,46.8,29.29,ENE,73,2.7,4.9,42,0.00,,,0.00,LWC V2.10 B1813,2013-01-21 20:38:00,
2013-01-21 14:43:00,70.9,46.6,29.29,SSE,155,4.9,4.9,42,0.00,,,0.00,LWC V2.10 B1813,2013-01-21 20:43:00,
2013-01-21 14:48:00,70.7,46.5,29.29,East,92,3.6,4.0,42,0.00,,,0.00,LWC V2.10 B1813,2013-01-21 20:48:00,
2013-01-21 14:53:00,70.5,46.3,29.29,SE,139,5.4,5.4,42,0.00,,,0.00,LWC V2.10 B1813,2013-01-21 20:53:00,
2013-01-21 14:58:00,70.3,46.1,29.29,ENE,74,4.0,4.0,42,0.00,,,0.00,LWC V2.10 B1813,2013-01-21 20:58:00,
2013-01-21 15:03:00,70.0,45.8,29.29,SE,139,0.0,0.0,42,0.00,,,0.00,LWC V2.10 B1813,2013-01-21 21:03:00,
2013-01-21 15:08:00,70.2,45.3,29.29,South,180,2.7,4.0,41,0.00,,,0.00,LWC V2.10 B1813,2013-01-21 21:08:00,
2013-01-21 15:13:00,70.2,44.7,29.29,SSE,150,3.1,5.4,40,0.00,,,0.00,LWC V2.10 B1813,2013-01-21 21:13:00,
2013-01-21 15:18:00,70.3,44.9,29.29,East,90,2.7,4.9,40,0.00,,,0.00,LWC V2.10 B1813,2013-01-21 21:18:00,
2013-01-21 15:23:00,70.3,44.9,29.29,SSE,154,3.6,4.9,40,0.00,,,0.00,LWC V2.10 B1813,2013-01-21 21:23:00,
2013-01-21 15:28:00,70.2,44.7,29.29,South,173,0.0,4.0,40,0.00,,,0.00,LWC V2.10 B1813,2013-01-21 21:28:00,
2013-01-21 15:33:00,70.9,45.3,29.29,ESE,117,3.1,4.0,40,0.00,,,0.00,LWC V2.10 B1813,2013-01-21 21:33:00,
2013-01-21 15:38:00,70.3,44.9,29.29,SE,127,2.7,4.0,40,0.00,,,0.00,LWC V2.10 B1813,2013-01-21 21:38:00,
2013-01-21 15:43:00,70.0,43.9,29.29,SE,138,3.1,4.0,39,0.00,,,0.00,LWC V2.10 B1813,2013-01-21 21:43:00,
2013-01-21 15:48:00,70.9,45.3,29.29,NE,55,0.0,2.7,40,0.00,,,0.00,LWC V2.10 B1813,2013-01-21 21:48:00,
2013-01-21 15:53:00,71.8,45.5,29.29,East,89,2.7,2.7,39,0.00,,,0.00,LWC V2.10 B1813,2013-01-21 21:53:00,
2013-01-21 15:58:00,71.2,45.0,29.29,NNE,18,4.0,4.0,39,0.00,,,0.00,LWC V2.10 B1813,2013-01-21 21:58:00,
2013-01-21 16:03:00,71.1,44.8,29.29,NNW,328,0.0,2.7,39,0.00,,,0.00,LWC V2.10 B1813,2013-01-21 22:03:00,
2013-01-21 16:08:00,70.9,44.7,29.29,North,4,4.0,4.0,39,0.00,,,0.00,LWC V2.10 B1813,2013-01-21 22:08:00,
2013-01-21 16:13:00,70.7,44.5,29.29,NNW,335,2.7,3.6,39,0.00,,,0.00,LWC V2.10 B1813,2013-01-21 22:13:00,
2013-01-21 16:18:00,70.5,43.7,29.29,North,353,2.7,3.1,38,0.00,,,0.00,LWC V2.10 B1813,2013-01-21 22:18:00,
2013-01-21 16:23:00,70.9,44.7,29.29,NNW,345,4.0,4.0,39,0.00,,,0.00,LWC V2.10 B1813,2013-01-21 22:23:00,
2013-01-21 16:28:00,70.9,44.0,29.29,NNW,329,0.0,0.0,38,0.00,,,0.00,LWC V2.10 B1813,2013-01-21 22:28:00,
2013-01-21 16:33:00,71.1,44.2,29.29,North,2,3.6,4.9,38,0.00,,,0.00,LWC V2.10 B1813,2013-01-21 22:33:00,
2013-01-21 16:38:00,70.5,43.7,29.29,NNE,22,2.2,4.0,38,0.00,,,0.00,LWC V2.10 B1813,2013-01-21 22:38:00,
2013-01-21 16:43:00,70.3,43.5,29.29,North,357,0.0,4.0,38,0.00,,,0.00,LWC V2.10 B1813,2013-01-21 22:43:00,
2013-01-21 16:48:00,70.3,44.2,29.29,ENE,78,2.2,4.5,39,0.00,,,0.00,LWC V2.10 B1813,2013-01-21 22:48:00,
2013-01-21 16:53:00,70.0,43.9,29.29,ENE,65,3.6,6.3,39,0.00,,,0.00,LWC V2.10 B1813,2013-01-21 22:53:00,
2013-01-21 16:58:00,68.9,43.6,29.29,NE,36,0.0,4.0,40,0.00,,,0.00,LWC V2.10 B1813,2013-01-21 22:58:00,
2013-01-21 17:03:00,68.5,43.3,29.29,North,353,2.7,4.0,40,0.00,,,0.00,LWC V2.10 B1813,2013-01-21 23:03:00,
2013-01-21 17:08:00,68.2,42.9,29.29,NNE,14,2.2,4.0,40,0.00,,,0.00,LWC V2.10 B1813,2013-01-21 23:08:00,
2013-01-21 17:13:00,67.5,42.3,29.29,ENE,66,4.9,8.1,40,0.00,,,0.00,LWC V2.10 B1813,2013-01-21 23:13:00,
2013-01-21 17:18:00,67.1,42.6,29.29,East,91,2.7,5.4,41,0.00,,,0.00,LWC V2.10 B1813,2013-01-21 23:18:00,
2013-01-21 17:23:00,66.6,42.1,29.29,NE,54,4.0,4.9,41,0.00,,,0.00,LWC V2.10 B1813,2013-01-21 23:23:00,
2013-01-21 17:28:00,66.2,41.8,29.29,NNE,29,3.1,4.9,41,0.00,,,0.00,LWC V2.10 B1813,2013-01-21 23:28:00,
2013-01-21 17:33:00,65.8,42.1,29.29,ENE,75,3.6,4.0,42,0.00,,,0.00,LWC V2.10 B1813,2013-01-21 23:33:00,
2013-01-21 17:38:00,64.9,41.3,29.29,ENE,66,4.9,5.8,42,0.00,,,0.00,LWC V2.10 B1813,2013-01-21 23:38:00,
2013-01-21 17:43:00,64.2,41.2,29.29,NE,52,4.0,4.9,43,0.00,,,0.00,LWC V2.10 B1813,2013-01-21 23:43:00,
2013-01-21 17:48:00,63.9,41.5,29.29,NNE,33,2.7,4.9,44,0.00,,,0.00,LWC V2.10 B1813,2013-01-21 23:48:00,
2013-01-21 17:53:00,63.3,41.0,29.29,NNE,27,3.6,4.0,44,0.00,,,0.00,LWC V2.10 B1813,2013-01-21 23:53:00,
2013-01-21 17:58:00,63.0,40.7,29.29,NE,49,2.7,4.0,44,0.00,,,0.00,LWC V2.10 B1813,2013-01-21 23:58:00,
2013-01-21 18:03:00,62.6,40.4,29.29,NE,54,4.0,6.3,44,0.00,,,0.00,LWC V2.10 B1813,2013-01-22 00:03:00,
2013-01-21 18:08:00,62.1,40.5,29.29,NE,54,4.0,5.8,45,0.00,,,0.00,LWC V2.10 B1813,2013-01-22 00:08:00,
2013-01-21 18:13:00,61.9,40.3,29.29,ENE,66,3.6,5.4,45,0.00,,,0.00,LWC V2.10 B1813,2013-01-22 00:13:00,
2013-01-21 18:18:00,61.7,40.7,29.29,ENE,76,5.8,5.8,46,0.00,,,0.00,LWC V2.10 B1813,2013-01-22 00:18:00,
2013-01-21 18:23:00,61.5,40.5,29.29,East,93,5.4,6.3,46,0.00,,,0.00,LWC V2.10 B1813,2013-01-22 00:23:00,
2013-01-21 18:28:00,61.3,40.4,29.29,ENE,59,3.6,5.8,46,0.00,,,0.00,LWC V2.10 B1813,2013-01-22 00:28:00,
2013-01-21 18:33:00,61.2,40.2,29.29,East,91,3.6,6.3,46,0.00,,,0.00,LWC V2.10 B1813,2013-01-22 00:33:00,
2013-01-21 18:38:00,60.8,40.4,29.29,East,81,4.0,5.4,47,0.00,,,0.00,LWC V2.10 B1813,2013-01-22 00:38:00,
2013-01-21 18:43:00,60.6,40.3,29.29,ENE,69,4.0,4.0,47,0.00,,,0.00,LWC V2.10 B1813,2013-01-22 00:43:00,
2013-01-21 18:48:00,60.4,40.7,29.29,NE,41,3.6,7.2,48,0.00,,,0.00,LWC V2.10 B1813,2013-01-22 00:48:00,
2013-01-21 18:53:00,60.3,40.5,29.29,NE,48,3.6,6.3,48,0.00,,,0.00,LWC V2.10 B1813,2013-01-22 00:53:00,
2013-01-21 18:58:00,60.1,40.3,29.29,NNE,19,6.3,6.3,48,0.00,,,0.00,LWC V2.10 B1813,2013-01-22 00:58:00,
2013-01-21 19:03:00,60.1,40.3,29.29,NE,51,3.1,8.7,48,0.00,,,0.00,LWC V2.10 B1813,2013-01-22 01:03:00,
2013-01-21 19:08:00,59.9,40.2,29.29,NNE,14,4.9,8.3,48,0.00,,,0.00,LWC V2.10 B1813,2013-01-22 01:08:00,
2013-01-21 19:13:00,59.7,40.0,29.29,ENE,60,4.0,6.3,48,0.00,,,0.00,LWC V2.10 B1813,2013-01-22 01:13:00,
2013-01-21 19:18:00,59.4,39.7,29.29,NE,47,5.4,8.1,48,0.00,,,0.00,LWC V2.10 B1813,2013-01-22 01:18:00,
2013-01-21 19:23:00,59.2,39.5,29.29,ENE,68,6.3,7.2,48,0.00,,,0.00,LWC V2.10 B1813,2013-01-22 01:23:00,
2013-01-21 19:28:00,59.0,39.3,29.29,NE,52,4.9,8.1,48,0.00,,,0.00,LWC V2.10 B1813,2013-01-22 01:28:00,
2013-01-21 19:33:00,58.8,39.2,29.29,NE,46,6.3,8.1,48,0.00,,,0.00,LWC V2.10 B1813,2013-01-22 01:33:00,
2013-01-21 19:38:00,58.5,38.8,29.29,NE,34,7.2,10.1,48,0.00,,,0.00,LWC V2.10 B1813,2013-01-22 01:38:00,
2013-01-21 19:43:00,58.5,38.8,29.29,ENE,58,6.3,8.1,48,0.00,,,0.00,LWC V2.10 B1813,2013-01-22 01:43:00,
2013-01-21 19:48:00,58.1,38.5,29.29,ESE,102,4.0,8.1,48,0.00,,,0.00,LWC V2.10 B1813,2013-01-22 01:48:00,
2013-01-21 19:53:00,58.1,38.5,29.29,East,101,10.1,10.1,48,0.00,,,0.00,LWC V2.10 B1813,2013-01-22 01:53:00,
2013-01-21 19:58:00,57.7,38.2,29.32,NE,47,4.9,6.3,48,0.00,,,0.00,LWC V2.10 B1813,2013-01-22 01:58:00,
2013-01-21 20:03:00,57.6,38.0,29.32,North,357,4.0,5.8,48,0.00,,,0.00,LWC V2.10 B1813,2013-01-22 02:03:00,
2013-01-21 20:08:00,57.4,37.9,29.32,ENE,58,6.7,7.6,48,0.00,,,0.00,LWC V2.10 B1813,2013-01-22 02:08:00,
2013-01-21 20:13:00,57.2,37.7,29.32,ENE,76,3.6,5.4,48,0.00,,,0.00,LWC V2.10 B1813,2013-01-22 02:13:00,
2013-01-21 20:18:00,57.0,38.0,29.32,ENE,59,3.6,5.8,49,0.00,,,0.00,LWC V2.10 B1813,2013-01-22 02:18:00,
2013-01-21 20:23:00,56.8,37.9,29.32,ENE,62,3.6,7.2,49,0.00,,,0.00,LWC V2.10 B1813,2013-01-22 02:23:00,
2013-01-21 20:28:00,56.7,37.7,29.32,NNE,18,6.3,8.7,49,0.00,,,0.00,LWC V2.10 B1813,2013-01-22 02:28:00,
2013-01-21 20:33:00,56.7,37.7,29.32,East,84,2.7,7.2,49,0.00,,,0.00,LWC V2.10 B1813,2013-01-22 02:33:00,
2013-01-21 20:38:00,56.5,37.6,29.32,ENE,69,8.3,8.3,49,0.00,,,0.00,LWC V2.10 B1813,2013-01-22 02:38:00,
2013-01-21 20:43:00,56.3,37.4,29.32,ENE,74,8.3,8.3,49,0.00,,,0.00,LWC V2.10 B1813,2013-01-22 02:43:00,
2013-01-21 20:48:00,56.3,37.4,29.32,ESE,102,2.7,5.4,49,0.00,,,0.00,LWC V2.10 B1813,2013-01-22 02:48:00,
2013-01-21 20:54:00,56.1,37.2,29.32,ENE,60,4.9,8.7,49,0.00,,,0.00,LWC V2.10 B1813,2013-01-22 02:54:00,
2013-01-21 20:59:00,56.1,37.2,29.32,East,79,5.8,7.6,49,0.00,,,0.00,LWC V2.10 B1813,2013-01-22 02:59:00,
2013-01-21 21:04:00,55.9,37.1,29.32,NE,37,2.7,6.3,49,0.00,,,0.00,LWC V2.10 B1813,2013-01-22 03:04:00,
2013-01-21 21:09:00,55.9,37.1,29.32,NNE,29,5.4,5.4,49,0.00,,,0.00,LWC V2.10 B1813,2013-01-22 03:09:00,
2013-01-21 21:14:00,55.8,36.9,29.32,NNW,339,2.7,4.0,49,0.00,,,0.00,LWC V2.10 B1813,2013-01-22 03:14:00,
2013-01-21 21:19:00,55.6,36.7,29.32,ENE,66,3.6,7.6,49,0.00,,,0.00,LWC V2.10 B1813,2013-01-22 03:19:00,
2013-01-21 21:24:00,55.4,36.6,29.32,NNE,13,2.7,4.0,49,0.00,,,0.00,LWC V2.10 B1813,2013-01-22 03:24:00,
2013-01-21 21:29:00,55.2,36.4,29.29,NNE,16,4.9,4.9,49,0.00,,,0.00,LWC V2.10 B1813,2013-01-22 03:29:00,
2013-01-21 21:34:00,55.2,36.4,29.29,North,10,2.7,4.0,49,0.00,,,0.00,LWC V2.10 B1813,2013-01-22 03:34:00,
2013-01-21 21:39:00,54.9,36.1,29.29,ENE,70,2.7,3.6,49,0.00,,,0.00,LWC V2.10 B1813,2013-01-22 03:39:00,
2013-01-21 21:44:00,54.7,35.9,29.32,ENE,57,0.0,3.1,49,0.00,,,0.00,LWC V2.10 B1813,2013-01-22 03:44:00,
2013-01-21 21:49:00,54.3,35.6,29.32,ENE,76,0.0,2.7,49,0.00,,,0.00,LWC V2.10 B1813,2013-01-22 03:49:00,
2013-01-21 21:54:00,54.1,35.4,29.32,NE,48,2.7,3.6,49,0.00,,,0.00,LWC V2.10 B1813,2013-01-22 03:54:00,
2013-01-21 21:59:00,54.0,35.2,29.32,NE,56,3.1,5.8,49,0.00,,,0.00,LWC V2.10 B1813,2013-01-22 03:59:00,
2013-01-21 22:04:00,53.8,35.1,29.32,ENE,69,3.6,4.0,49,0.00,,,0.00,LWC V2.10 B1813,2013-01-22 04:04:00,
2013-01-21 22:09:00,53.8,35.1,29.32,NE,51,4.0,4.9,49,0.00,,,0.00,LWC V2.10 B1813,2013-01-22 04:09:00,
2013-01-21 22:14:00,53.4,35.2,29.32,NE,42,3.6,3.6,50,0.00,,,0.00,LWC V2.10 B1813,2013-01-22 04:14:00,
2013-01-21 22:19:00,53.2,35.1,29.32,NE,54,0.0,4.0,50,0.00,,,0.00,LWC V2.10 B1813,2013-01-22 04:19:00,
2013-01-21 22:24:00,53.1,34.9,29.32,ENE,73,3.1,4.0,50,0.00,,,0.00,LWC V2.10 B1813,2013-01-22 04:24:00,
2013-01-21 22:29:00,52.7,34.6,29.32,East,98,2.7,3.6,50,0.00,,,0.00,LWC V2.10 B1813,2013-01-22 04:29:00,
2013-01-21 22:34:00,52.5,34.4,29.32,NE,56,3.6,3.6,50,0.00,,,0.00,LWC V2.10 B1813,2013-01-22 04:34:00,
2013-01-21 22:39:00,52.3,34.8,29.32,ENE,58,3.1,6.3,51,0.00,,,0.00,LWC V2.10 B1813,2013-01-22 04:39:00,
2013-01-21 22:44:00,52.2,34.6,29.32,ENE,74,4.0,4.0,51,0.00,,,0.00,LWC V2.10 B1813,2013-01-22 04:44:00,
2013-01-21 22:49:00,52.0,34.4,29.32,NE,46,3.1,3.1,51,0.00,,,0.00,LWC V2.10 B1813,2013-01-22 04:49:00,
2013-01-21 22:54:00,51.8,34.3,29.32,NE,41,2.7,4.9,51,0.00,,,0.00,LWC V2.10 B1813,2013-01-22 04:54:00,
2013-01-21 22:59:00,51.6,34.1,29.32,ENE,64,3.1,3.1,51,0.00,,,0.00,LWC V2.10 B1813,2013-01-22 04:59:00,
2013-01-21 23:00:00,51.6,34.1,29.32,ENE,64,0.0,3.1,51,0.00,,,0.00,LWC V2.10 B1813,2013-01-22 05:00:00,
2013-01-21 23:05:00,51.4,33.9,29.32,ENE,63,0.0,4.0,51,0.00,,,0.00,LWC V2.10 B1813,2013-01-22 05:05:00,
2013-01-21 23:10:00,51.3,33.8,29.32,ENE,67,4.0,4.0,51,0.00,,,0.00,LWC V2.10 B1813,2013-01-22 05:10:00,
2013-01-21 23:15:00,51.1,33.6,29.32,NE,45,2.7,4.0,51,0.00,,,0.00,LWC V2.10 B1813,2013-01-22 05:15:00,
2013-01-21 23:20:00,51.1,33.6,29.32,ENE,76,2.2,3.6,51,0.00,,,0.00,LWC V2.10 B1813,2013-01-22 05:20:00,
2013-01-21 23:25:00,50.9,33.4,29.32,East,79,2.7,2.7,51,0.00,,,0.00,LWC V2.10 B1813,2013-01-22 05:25:00,
2013-01-21 23:30:00,50.5,33.6,29.32,East,87,2.2,4.0,52,0.00,,,0.00,LWC V2.10 B1813,2013-01-22 05:30:00,
2013-01-21 23:35:00,50.4,33.4,29.32,East,90,2.2,2.7,52,0.00,,,0.00,LWC V2.10 B1813,2013-01-22 05:35:00,
2013-01-21 23:40:00,50.4,33.4,29.32,East,83,3.1,3.1,52,0.00,,,0.00,LWC V2.10 B1813,2013-01-22 05:40:00,
2013-01-21 23:45:00,50.2,33.2,29.32,ENE,60,2.7,3.6,52,0.00,,,0.00,LWC V2.10 B1813,2013-01-22 05:45:00,
2013-01-21 23:50:00,50.0,33.1,29.32,NE,51,4.0,4.0,52,0.00,,,0.00,LWC V2.10 B1813,2013-01-22 05:50:00,
2013-01-21 23:55:00,49.8,33.4,29.32,NE,51,3.6,3.6,53,0.00,,,0.00,LWC V2.10 B1813,2013-01-22 05:55:00,